�������l�o���
Date,Time,MP-1(��Sv/h),MP-2(��Sv/h),MP-3(��Sv/h),MP-4(��Sv/h),MP-5(��Sv/h),MP-6(��Sv/h),MP-7(��Sv/h),MP-8(��Sv/h),����,����(m/s),���J
2022/09/10,00:00,0.586,0.825,0.525,0.999,0.718,0.336,0.585,0.553,�k�k��,5.3,��
2022/09/10,00:10,0.587,0.823,0.524,1.001,0.719,0.336,0.585,0.553,�k�k��,4.8,��
2022/09/10,00:20,0.586,0.826,0.526,1.000,0.718,0.338,0.585,0.554,�k�k��,6.0,��
2022/09/10,00:30,0.587,0.826,0.526,1.001,0.718,0.336,0.588,0.553,�k�k��,5.7,��
2022/09/10,00:40,0.587,0.824,0.525,1.000,0.718,0.336,0.586,0.553,�k�k��,5.0,��
2022/09/10,00:50,0.586,0.824,0.528,1.002,0.718,0.335,0.585,0.553,�k��,4.8,��
2022/09/10,01:00,0.586,0.825,0.527,1.002,0.718,0.337,0.586,0.552,�k�k��,5.0,��
2022/09/10,01:10,0.589,0.823,0.524,1.004,0.719,0.337,0.586,0.552,�k�k��,4.3,��
2022/09/10,01:20,0.584,0.824,0.526,1.001,0.720,0.336,0.584,0.552,�k�k��,4.6,��
2022/09/10,01:30,0.588,0.824,0.525,1.000,0.720,0.337,0.585,0.552,�k��,4.6,��
2022/09/10,01:40,0.587,0.825,0.525,1.003,0.717,0.338,0.586,0.553,�k�k��,4.7,��
2022/09/10,01:50,0.587,0.825,0.527,1.002,0.718,0.336,0.585,0.553,�k�k��,5.0,��
2022/09/10,02:00,0.587,0.826,0.525,1.002,0.718,0.337,0.585,0.553,�k�k��,4.7,��
2022/09/10,02:10,0.586,0.826,0.524,1.001,0.718,0.336,0.585,0.553,�k�k��,5.2,��
2022/09/10,02:20,0.589,0.825,0.526,1.003,0.718,0.337,0.585,0.553,�k�k��,5.0,��
2022/09/10,02:30,0.588,0.822,0.526,1.003,0.718,0.337,0.583,0.552,�k�k��,4.8,��
2022/09/10,02:40,0.586,0.825,0.526,1.002,0.718,0.337,0.585,0.552,�k�k��,4.7,��
2022/09/10,02:50,0.587,0.825,0.526,1.002,0.718,0.338,0.587,0.554,�k�k��,4.7,��
2022/09/10,03:00,0.587,0.825,0.526,1.002,0.717,0.336,0.587,0.553,�k��,3.4,��
2022/09/10,03:10,0.587,0.824,0.526,1.003,0.720,0.339,0.587,0.554,�k��,3.9,��
2022/09/10,03:20,0.587,0.825,0.525,1.003,0.718,0.338,0.586,0.554,�k��,3.9,��
2022/09/10,03:30,0.587,0.826,0.525,1.002,0.716,0.337,0.588,0.553,�k��,4.0,��
2022/09/10,03:40,0.588,0.823,0.525,1.002,0.718,0.337,0.586,0.554,�k�k��,4.5,��
2022/09/10,03:50,0.588,0.824,0.525,1.002,0.719,0.336,0.587,0.553,�k�k��,4.4,��
2022/09/10,04:00,0.587,0.823,0.527,1.002,0.718,0.338,0.586,0.552,�k�k��,4.5,��
2022/09/10,04:10,0.589,0.825,0.527,1.002,0.718,0.337,0.586,0.552,�k,4.5,��
2022/09/10,04:20,0.586,0.824,0.527,1.002,0.720,0.337,0.585,0.552,�k,3.4,��
2022/09/10,04:30,0.588,0.824,0.526,1.003,0.720,0.336,0.588,0.552,�k,4.1,��
2022/09/10,04:40,0.589,0.824,0.527,1.004,0.719,0.338,0.588,0.553,�k,4.8,��
2022/09/10,04:50,0.588,0.823,0.525,1.001,0.718,0.337,0.586,0.552,�k,4.6,��
2022/09/10,05:00,0.587,0.824,0.525,1.003,0.716,0.337,0.587,0.554,�k,5.3,��
2022/09/10,05:10,0.587,0.825,0.525,1.004,0.719,0.338,0.587,0.553,�k,4.8,��
2022/09/10,05:20,0.587,0.826,0.524,1.003,0.719,0.337,0.587,0.551,�k,4.9,��
2022/09/10,05:30,0.590,0.824,0.524,1.003,0.718,0.336,0.587,0.552,�k,5.1,��
2022/09/10,05:40,0.588,0.825,0.527,1.002,0.718,0.337,0.587,0.553,�k,5.3,��
2022/09/10,05:50,0.588,0.824,0.527,1.002,0.718,0.338,0.587,0.552,�k,5.9,��
2022/09/10,06:00,0.589,0.826,0.525,1.005,0.719,0.337,0.587,0.554,�k,6.1,��
2022/09/10,06:10,0.588,0.824,0.527,1.001,0.719,0.336,0.587,0.553,�k,5.4,��
2022/09/10,06:20,0.587,0.825,0.526,1.003,0.718,0.336,0.586,0.553,�k,5.6,��
2022/09/10,06:30,0.586,0.824,0.528,1.004,0.719,0.336,0.586,0.553,�k,4.7,��
2022/09/10,06:40,0.588,0.825,0.526,1.003,0.719,0.337,0.588,0.553,�k,4.4,��
2022/09/10,06:50,0.586,0.825,0.524,1.003,0.718,0.335,0.587,0.553,�k,5.3,��
2022/09/10,07:00,0.585,0.825,0.526,1.004,0.717,0.336,0.587,0.552,�k,5.1,��
2022/09/10,07:10,0.587,0.824,0.526,1.004,0.719,0.336,0.586,0.553,�k,5.3,��
2022/09/10,07:20,0.587,0.825,0.526,1.002,0.720,0.336,0.587,0.551,�k,4.9,��
2022/09/10,07:30,0.587,0.821,0.526,1.002,0.718,0.335,0.586,0.552,�k,5.4,��
2022/09/10,07:40,0.585,0.824,0.526,1.001,0.718,0.335,0.588,0.552,�k,5.8,��
2022/09/10,07:50,0.587,0.824,0.525,1.003,0.718,0.336,0.584,0.553,�k,5.8,��
2022/09/10,08:00,0.587,0.822,0.525,1.003,0.718,0.336,0.585,0.552,�k�k��,5.0,��
2022/09/10,08:10,0.585,0.823,0.526,1.002,0.717,0.335,0.585,0.551,�k,5.4,��
2022/09/10,08:20,0.584,0.824,0.524,1.002,0.717,0.337,0.586,0.551,�k,8.1,��
2022/09/10,08:30,0.585,0.823,0.524,1.004,0.718,0.336,0.586,0.549,�k,7.7,��
2022/09/10,08:40,0.585,0.824,0.525,1.005,0.719,0.335,0.585,0.551,�k,7.4,��
2022/09/10,08:50,0.585,0.823,0.524,1.003,0.718,0.336,0.584,0.552,�k,6.3,��
2022/09/10,09:00,0.587,0.823,0.524,1.003,0.716,0.336,0.587,0.551,�k,6.2,��
2022/09/10,09:10,0.586,0.823,0.523,1.006,0.718,0.335,0.586,0.550,�k�k��,7.5,��
2022/09/10,09:20,0.587,0.825,0.524,1.004,0.718,0.335,0.586,0.552,�k�k��,7.9,��
2022/09/10,09:30,0.587,0.825,0.523,1.005,0.718,0.335,0.585,0.550,�k,5.9,��
2022/09/10,09:40,0.588,0.825,0.525,1.004,0.718,0.337,0.583,0.551,�k,7.6,��
2022/09/10,09:50,0.587,0.827,0.525,1.005,0.719,0.336,0.585,0.550,�k,8.0,��
2022/09/10,10:00,0.590,0.826,0.526,1.005,0.717,0.337,0.584,0.551,�k,8.0,��
2022/09/10,10:10,0.588,0.826,0.525,1.007,0.720,0.338,0.585,0.550,�k�k��,7.3,��
2022/09/10,10:20,0.589,0.827,0.525,1.006,0.722,0.337,0.586,0.551,�k,7.0,��
2022/09/10,10:30,0.587,0.828,0.525,1.007,0.718,0.337,0.586,0.552,�k�k��,7.2,��
2022/09/10,10:40,0.590,0.827,0.526,1.008,0.720,0.337,0.586,0.551,�k,6.9,��
2022/09/10,10:50,0.589,0.825,0.526,1.007,0.723,0.337,0.588,0.552,�k,7.7,��
2022/09/10,11:00,0.591,0.827,0.526,1.005,0.720,0.337,0.585,0.552,�k,7.9,��
2022/09/10,11:10,0.590,0.828,0.526,1.007,0.722,0.337,0.587,0.551,�k�k��,8.6,��
2022/09/10,11:20,0.590,0.829,0.526,1.008,0.723,0.338,0.587,0.553,�k�k��,8.1,��
2022/09/10,11:30,0.591,0.830,0.528,1.008,0.724,0.338,0.587,0.551,�k�k��,7.5,��
2022/09/10,11:40,0.589,0.831,0.527,1.008,0.724,0.337,0.587,0.552,�k�k��,7.6,��
2022/09/10,11:50,0.590,0.830,0.526,1.008,0.722,0.337,0.585,0.552,�k�k��,7.5,��
2022/09/10,12:00,0.590,0.830,0.528,1.007,0.723,0.337,0.586,0.554,�k�k��,6.9,��
2022/09/10,12:10,0.590,0.830,0.527,1.009,0.724,0.337,0.585,0.552,�k�k��,7.4,��
2022/09/10,12:20,0.591,0.829,0.527,1.006,0.723,0.337,0.587,0.553,�k�k��,6.8,��
2022/09/10,12:30,0.592,0.828,0.527,1.007,0.724,0.338,0.588,0.554,�k,7.1,��
2022/09/10,12:40,0.592,0.829,0.527,1.011,0.724,0.338,0.585,0.551,�k�k��,6.7,��
2022/09/10,12:50,0.590,0.831,0.528,1.009,0.723,0.338,0.587,0.553,�k�k��,6.9,��
2022/09/10,13:00,0.592,0.829,0.527,1.009,0.724,0.338,0.586,0.553,�k�k��,7.1,��
2022/09/10,13:10,0.590,0.831,0.526,1.009,0.724,0.336,0.587,0.552,�k�k��,6.8,��
2022/09/10,13:20,0.591,0.831,0.527,1.010,0.724,0.338,0.587,0.553,�k�k��,6.1,��
2022/09/10,13:30,0.589,0.831,0.529,1.009,0.725,0.337,0.586,0.554,�k�k��,6.0,��
2022/09/10,13:40,0.586,0.830,0.526,1.008,0.724,0.338,0.586,0.553,�k�k��,5.7,��
2022/09/10,13:50,0.585,0.832,0.529,1.010,0.725,0.337,0.588,0.553,�k�k��,5.4,��
2022/09/10,14:00,0.586,0.832,0.528,1.011,0.726,0.337,0.587,0.552,�k�k��,4.6,��
2022/09/10,14:10,0.585,0.831,0.528,1.011,0.726,0.339,0.587,0.553,�k�k��,5.3,��
2022/09/10,14:20,0.586,0.831,0.527,1.011,0.726,0.338,0.587,0.553,�k�k��,5.0,��
2022/09/10,14:30,0.586,0.831,0.527,1.010,0.726,0.337,0.588,0.553,�k�k��,4.9,��
2022/09/10,14:40,0.586,0.832,0.529,1.011,0.727,0.338,0.586,0.554,�k�k��,5.0,��
2022/09/10,14:50,0.587,0.833,0.527,1.011,0.724,0.337,0.587,0.554,�k�k��,6.2,��
2022/09/10,15:00,0.588,0.834,0.529,1.011,0.725,0.338,0.587,0.553,�k�k��,7.0,��
2022/09/10,15:10,0.591,0.834,0.528,1.011,0.725,0.338,0.588,0.554,�k�k��,7.1,��
2022/09/10,15:20,0.590,0.833,0.529,1.011,0.727,0.337,0.588,0.554,�k�k��,7.2,��
2022/09/10,15:30,0.592,0.835,0.528,1.010,0.726,0.339,0.587,0.553,�k�k��,7.8,��
2022/09/10,15:40,0.591,0.832,0.527,1.012,0.728,0.338,0.588,0.553,�k,8.0,��
2022/09/10,15:50,0.590,0.833,0.529,1.010,0.724,0.339,0.586,0.554,�k�k��,8.1,��
2022/09/10,16:00,0.591,0.831,0.528,1.011,0.725,0.336,0.587,0.554,�k,7.4,��
2022/09/10,16:10,0.590,0.833,0.526,1.010,0.724,0.337,0.587,0.554,�k,6.9,��
2022/09/10,16:20,0.590,0.831,0.528,1.010,0.724,0.337,0.587,0.553,�k,7.2,��
2022/09/10,16:30,0.590,0.832,0.527,1.010,0.726,0.339,0.586,0.553,�k,7.7,��
2022/09/10,16:40,0.589,0.832,0.527,1.010,0.726,0.337,0.585,0.553,�k,7.5,��
2022/09/10,16:50,0.589,0.833,0.527,1.010,0.726,0.337,0.584,0.553,�k,6.7,��
2022/09/10,17:00,0.591,0.833,0.528,1.014,0.726,0.339,0.585,0.554,�k,7.5,��
2022/09/10,17:10,0.589,0.831,0.527,1.012,0.726,0.337,0.586,0.554,�k,5.5,��
2022/09/10,17:20,0.590,0.832,0.527,1.010,0.725,0.339,0.585,0.553,�k,6.2,��
2022/09/10,17:30,0.590,0.835,0.527,1.008,0.726,0.338,0.587,0.553,�k,6.1,��
2022/09/10,17:40,0.589,0.836,0.528,1.010,0.725,0.337,0.587,0.553,�k,6.1,��
2022/09/10,17:50,0.590,0.835,0.527,1.012,0.726,0.339,0.586,0.555,�k,6.8,��
2022/09/10,18:00,0.591,0.836,0.527,1.012,0.727,0.338,0.589,0.555,�k,6.8,��
2022/09/10,18:10,0.588,0.835,0.528,1.012,0.726,0.338,0.588,0.554,�k,7.3,��
2022/09/10,18:20,0.591,0.835,0.529,1.010,0.729,0.337,0.587,0.555,�k,8.0,��
2022/09/10,18:30,0.590,0.835,0.529,1.014,0.728,0.338,0.588,0.554,�k,6.2,��
2022/09/10,18:40,0.590,0.833,0.529,1.013,0.724,0.336,0.588,0.556,�k,6.3,��
2022/09/10,18:50,0.589,0.835,0.528,1.014,0.727,0.337,0.587,0.555,�k,6.2,��
2022/09/10,19:00,0.589,0.834,0.530,1.014,0.727,0.338,0.587,0.554,�k,6.0,��
2022/09/10,19:10,0.590,0.835,0.529,1.015,0.726,0.337,0.587,0.555,�k,6.4,��
2022/09/10,19:20,0.590,0.833,0.527,1.012,0.729,0.337,0.589,0.556,�k,6.1,��
2022/09/10,19:30,0.590,0.834,0.529,1.014,0.728,0.336,0.587,0.556,�k,6.8,��
2022/09/10,19:40,0.590,0.834,0.528,1.012,0.728,0.335,0.587,0.555,�k,6.1,��
2022/09/10,19:50,0.589,0.832,0.529,1.014,0.727,0.335,0.588,0.554,�k,5.6,��
2022/09/10,20:00,0.591,0.834,0.528,1.015,0.728,0.337,0.586,0.555,�k,6.3,��
2022/09/10,20:10,0.591,0.835,0.528,1.013,0.728,0.337,0.589,0.555,�k,5.7,��
2022/09/10,20:20,0.592,0.835,0.529,1.014,0.729,0.337,0.588,0.556,�k,5.7,��
2022/09/10,20:30,0.592,0.835,0.530,1.014,0.728,0.338,0.589,0.555,�k,5.3,��
2022/09/10,20:40,0.591,0.837,0.529,1.016,0.728,0.338,0.588,0.555,�k,4.8,��
2022/09/10,20:50,0.590,0.835,0.529,1.017,0.728,0.338,0.588,0.555,�k�k��,5.0,��
2022/09/10,21:00,0.593,0.835,0.530,1.014,0.728,0.339,0.589,0.555,�k�k��,6.1,��
2022/09/10,21:10,0.591,0.836,0.529,1.013,0.729,0.338,0.587,0.555,�k�k��,6.0,��
2022/09/10,21:20,0.592,0.835,0.530,1.015,0.727,0.338,0.588,0.555,�k�k��,6.5,��
2022/09/10,21:30,0.592,0.835,0.530,1.014,0.728,0.338,0.589,0.555,�k�k��,5.3,��
2022/09/10,21:40,0.591,0.836,0.528,1.014,0.727,0.337,0.588,0.554,�k�k��,6.4,��
2022/09/10,21:50,0.592,0.837,0.528,1.014,0.728,0.337,0.587,0.556,�k�k��,6.8,��
2022/09/10,22:00,0.592,0.835,0.530,1.012,0.729,0.338,0.588,0.556,�k�k��,6.2,��
2022/09/10,22:10,0.591,0.835,0.529,1.012,0.729,0.335,0.587,0.554,�k�k��,5.7,��
2022/09/10,22:20,0.592,0.835,0.531,1.014,0.729,0.336,0.587,0.555,�k�k��,6.0,��
2022/09/10,22:30,0.592,0.833,0.529,1.012,0.727,0.336,0.589,0.557,�k�k��,5.7,��
2022/09/10,22:40,0.591,0.837,0.529,1.014,0.729,0.339,0.588,0.554,�k�k��,6.3,��
2022/09/10,22:50,0.591,0.835,0.528,1.014,0.727,0.338,0.588,0.555,�k�k��,6.8,��
2022/09/10,23:00,0.590,0.834,0.529,1.014,0.728,0.338,0.587,0.557,�k�k��,7.0,��
2022/09/10,23:10,0.593,0.836,0.529,1.014,0.729,0.337,0.590,0.556,�k�k��,6.1,��
2022/09/10,23:20,0.592,0.833,0.530,1.016,0.729,0.338,0.587,0.555,�k,7.1,��
2022/09/10,23:30,0.592,0.836,0.528,1.015,0.727,0.339,0.586,0.555,�k�k��,6.2,��
2022/09/10,23:40,0.591,0.834,0.529,1.014,0.727,0.337,0.588,0.555,�k�k��,6.6,��
2022/09/10,23:50,0.592,0.835,0.529,1.014,0.728,0.338,0.588,0.555,�k�k��,6.0,��
